Weather in Washington

United States     38˚53′58″N   77˚02′11″W
temp.,
°C
wind,
m/s
gust,
m/s
humid.,
%
clouds,
%
prec.,
mm/h
press.,
hPa
HPBL,
m
27 november, fri
fri2701:00+13˚n246950 0.0 1019245
04:00+12˚n256893 0.0 1019256
07:00+12˚nne256695 0.0 1019272
10:00+13˚nnw126087 0.0 1020448
13:00+14˚nnw115890 0.0 1018711
16:00+13˚nnw236597 0.0 1017535
19:00+12˚nw136583 0.0 1017239
22:00+12˚nw2563100 0.0 1017642
28 november, sat
sat2801:00+11˚nw376182 0.0 1017547
04:00+9˚nnw386352 0.0 1017428
07:00+8˚nw376926 0.0 1018407
10:00+11˚wnw37570 0.0 1019848
13:00+14˚wnw48470 0.0 10181720
16:00+12˚wnw474824 0.0 10181340
19:00+10˚nw374813 0.0 1020789
22:00+8˚nnw38470 0.0 1021462
29 november, sun
sun2901:00+7˚nw14510 0.0 1022193
04:00+7˚w12560 0.0 102297
07:00+6˚w11620 0.0 102363
10:00+10˚ssw25510 0.0 1023441
13:00+13˚s35470 0.0 1021739
16:00+13˚s37550 0.0 1019790
19:00+11˚s396933 0.0 1019495
22:00+11˚s31074100 0.0 1018512
30 november, mon
mon3001:00+10˚sse287599 0.0 1016387
04:00+11˚se41382100 0.1 1012718
07:00+12˚se51392100 1.1 1007879
10:00+14˚se81982100 4.2 10021326
13:00+15˚sse51392100 13.7 997789
16:00+16˚w487778 1.2 997762
19:00+12˚w5105568 1.2 999910
22:00+10˚wsw385420 0.0 1001741
1 december, tue
tue101:00+9˚w476110 0.0 1001900
04:00+7˚w25620 0.0 1002590
07:00+6˚wnw25664 0.0 1003544
10:00+6˚wnw465386 0.1 1003899
13:00+6˚w476291 0.2 10031136
16:00+7˚w594797 0.1 10051821
19:00+5˚w5114187 0.1 10081587
22:00+4˚wsw5114311 0.0 10111261